GW4062 Weather Reports


time (UTC)temp
C
wind
direction
speed
KPH
gust
KPH
rain 1hr
cm
rain 24hr
cm
rain mn
cm
humidity
%
barometer
mb
20260506021530 16 328 1.6 3.2 0.00 0.05 0.05 70 1016.0
20260506020530 16 313 0.0 1.6 0.00 0.05 0.05 71 1016.0
20260506015550 16 332 1.6 3.2 0.00 0.05 0.05 70 1016.0
20260506014550 16 327 0.0 1.6 0.00 0.05 0.05 69 1016.0
20260506013531 16 338 0.0 1.6 0.00 0.05 0.05 69 1016.1
20260506012531 16 329 1.6 1.6 0.00 0.05 0.05 69 1016.1
20260506011551 16 338 1.6 3.2 0.00 0.05 0.05 69 1016.0
20260506010531 16 348 1.6 3.2 0.00 0.05 0.05 69 1016.0
20260506005531 16 10 0.0 3.2 0.00 0.05 0.05 69 1016.0
20260506004531 16 359 1.6 3.2 0.00 0.05 0.05 69 1015.9
20260506003531 16 325 3.2 6.4 0.00 0.05 0.05 69 1015.9
20260506002531 17 345 1.6 3.2 0.00 0.05 0.05 69 1015.8
20260506001633 17 277 1.6 4.8 0.00 0.05 0.05 68 1015.7
20260506000532 17 347 3.2 6.4 0.00 0.05 0.05 68 1015.6
20260505235532 17 340 1.6 6.4 0.00 0.05 0.05 68 1015.6
20260505234532 17 14 1.6 6.4 0.00 0.05 0.05 68 1015.6
20260505233532 17 352 3.2 4.8 0.00 0.05 0.05 67 1015.7
20260505232532 18 35 1.6 3.2 0.00 0.05 0.05 66 1015.7
20260505231532 18 264 0.0 1.6 0.00 0.05 0.05 66 1015.8
20260505230518 18 352 1.6 3.2 0.00 0.05 0.05 66 1015.7
20260505225517 18 351 1.6 4.8 0.00 0.05 0.05 65 1015.7
20260505224533 18 329 1.6 4.8 0.00 0.05 0.05 65 1015.7
20260505223532 18 9 3.2 4.8 0.00 0.05 0.05 64 1015.8
20260505222533 18 358 1.6 4.8 0.00 0.05 0.05 64 1015.9
20260505221533 18 353 3.2 6.4 0.00 0.05 0.05 65 1015.9
20260505220533 17 333 1.6 4.8 0.00 0.05 0.05 66 1015.9
20260505215518 17 2 3.2 4.8 0.00 0.05 0.05 66 1016.0
20260505214518 17 287 3.2 6.4 0.00 0.05 0.05 67 1016.1
20260505213519 17 5 3.2 6.4 0.00 0.05 0.05 67 1016.1
20260505212519 17 352 1.6 4.8 0.00 0.05 0.05 68 1016.2
20260505211519 17 350 1.6 4.8 0.00 0.05 0.05 68 1016.2
20260505210519 17 312 1.6 4.8 0.00 0.05 0.05 68 1016.2
20260505205519 17 346 1.6 4.8 0.00 0.05 0.05 69 1016.1
20260505204519 17 337 3.2 4.8 0.00 0.05 0.05 68 1016.1
20260505203519 17 357 3.2 4.8 0.00 0.05 0.05 67 1016.1
20260505202519 17 356 1.6 4.8 0.00 0.05 0.05 67 1016.1
20260505201520 17 316 1.6 1.6 0.00 0.05 0.05 69 1016.3
20260505200520 16 6 1.6 4.8 0.00 0.05 0.05 69 1016.4
20260505195520 16 347 3.2 4.8 0.00 0.05 0.05 69 1016.4
20260505194520 16 4 1.6 4.8 0.00 0.05 0.05 70 1016.4
20260505193520 17 335 3.2 9.7 0.00 0.05 0.05 68 1016.5
20260505192521 17 320 1.6 4.8 0.00 0.05 0.05 70 1016.6
20260505191520 16 330 1.6 6.4 0.00 0.05 0.05 71 1016.5
20260505190520 16 340 3.2 4.8 0.00 0.05 0.05 71 1016.5
20260505185521 16 357 3.2 6.4 0.00 0.05 0.05 72 1016.4
20260505184521 16 358 3.2 4.8 0.00 0.05 0.05 73 1016.4
20260505183521 15 353 1.6 3.2 0.00 0.05 0.05 75 1016.4
20260505182541 15 326 3.2 4.8 0.00 0.05 0.05 76 1016.5
20260505181522 15 328 1.6 3.2 0.00 0.05 0.05 78 1016.4
20260505180521 15 243 3.2 6.4 0.00 0.05 0.05 77 1016.3
20260505175522 15 344 1.6 3.2 0.00 0.05 0.05 77 1016.3
20260505174542 15 340 3.2 8.0 0.00 0.05 0.05 79 1016.2
20260505173522 14 334 3.2 4.8 0.00 0.05 0.05 80 1016.1
20260505172522 13 310 1.6 4.8 0.00 0.05 0.05 82 1016.0
20260505171603 13 346 1.6 6.4 0.00 0.05 0.05 82 1016.0
20260505170523 13 360 1.6 3.2 0.00 0.05 0.05 82 1016.0
20260505165522 13 339 1.6 3.2 0.00 0.05 0.05 82 1016.0
20260505164544 13 333 1.6 3.2 0.00 0.05 0.05 82 1015.9
20260505163523 13 303 1.6 3.2 0.00 0.05 0.05 83 1015.8
20260505162543 13 306 1.6 3.2 0.00 0.05 0.05 83 1015.8
20260505161523 13 295 1.6 3.2 0.00 0.05 0.05 84 1015.8
20260505160523 13 256 1.6 3.2 0.00 0.05 0.05 85 1015.7
20260505152524 12 324 1.6 1.6 0.00 0.05 0.05 90 1015.5
20260505151524 12 317 1.6 3.2 0.00 0.05 0.05 91 1015.4
20260505150524 12 329 1.6 3.2 0.00 0.05 0.05 91 1015.3
20260505140524 11 309 1.6 1.6 0.00 0.05 0.05 91 1015.0
20260505124525 11 283 0.0 1.6 0.00 0.05 0.05 90 1014.9
20260505123526 11 293 1.6 1.6 0.00 0.05 0.05 90 1014.9
20260505122525 11 325 1.6 3.2 0.00 0.05 0.05 90 1014.9
20260505121526 11 339 1.6 3.2 0.00 0.05 0.05 89 1014.8
20260505120526 11 296 1.6 1.6 0.00 0.05 0.05 89 1014.6
20260505115526 11 323 1.6 1.6 0.00 0.05 0.05 89 1014.9
20260505114526 11 310 1.6 1.6 0.00 0.05 0.05 89 1014.9
20260505113526 11 270 0.0 1.6 0.00 0.05 0.05 88 1014.9
20260505112527 11 293 1.6 1.6 0.00 0.05 0.05 88 1014.9
20260505111526 11 272 1.6 1.6 0.03 0.05 0.05 88 1014.9
20260505110547 11 333 1.6 3.2 0.03 0.05 0.05 87 1014.9
20260505101527 11 313 1.6 3.2 0.03 0.03 0.03 85 1014.9
20260505100528 11 266 0.0 1.6 0.00 0.00 0.00 84 1015.0
20260505095528 11 305 1.6 1.6 0.00 0.00 0.00 84 1015.0
20260505094528 11 309 0.0 1.6 0.00 0.00 0.00 84 1015.0
20260505093528 11 285 1.6 3.2 0.00 0.00 0.00 83 1015.2
20260505092528 11 302 0.0 1.6 0.00 0.00 0.00 82 1015.2
20260505091528 11 313 1.6 1.6 0.00 0.00 0.00 82 1015.2
20260505090528 11 349 1.6 1.6 0.00 0.00 0.00 82 1015.3
20260505085529 11 312 1.6 1.6 0.00 0.00 0.00 81 1015.4
20260505084528 11 309 1.6 1.6 0.00 0.00 0.00 81 1015.5
20260505083529 11 323 1.6 1.6 0.00 0.00 0.00 80 1015.6
20260505082529 11 330 1.6 3.2 0.00 0.00 0.00 79 1015.6
20260505081529 12 328 1.6 3.2 0.00 0.00 0.00 79 1015.7
20260505080549 12 312 1.6 3.2 0.00 0.00 0.00 78 1015.7
20260505075529 12 314 1.6 4.8 0.00 0.00 0.00 77 1015.8
20260505074530 12 313 1.6 3.2 0.00 0.00 0.00 75 1015.9
20260505073530 12 330 3.2 3.2 0.00 0.00 0.00 75 1015.9
20260505072530 12 343 1.6 4.8 0.00 0.00 0.00 74 1015.9
20260505071530 12 320 1.6 3.2 0.00 0.00 0.00 74 1015.7
20260505070530 12 333 1.6 4.8 0.00 0.00 0.00 74 1015.6
20260505065551 12 324 3.2 6.4 0.00 0.00 0.00 74 1015.5
20260505064531 12 314 1.6 4.8 0.00 0.00 0.00 75 1015.5
20260505063531 12 339 1.6 3.2 0.00 0.00 0.00 76 1015.5
20260505062551 12 355 1.6 3.2 0.00 0.00 0.00 77 1015.4
20260505061531 12 335 1.6 3.2 0.00 0.00 0.00 76 1015.2
20260505060531 12 338 1.6 4.8 0.00 0.00 0.00 77 1015.2
20260505055531 12 272 1.6 4.8 0.00 0.00 0.00 77 1015.3
20260505054531 12 305 1.6 3.2 0.00 0.00 0.00 77 1015.3
20260505053532 12 321 3.2 8.0 0.00 0.00 0.00 77 1015.4
20260505052531 13 292 1.6 4.8 0.00 0.00 0.00 77 1015.6
20260505051531 13 309 3.2 6.4 0.00 0.00 0.00 77 1015.6
20260505050531 13 338 3.2 4.8 0.00 0.00 0.00 78 1015.8
20260505041532 13 330 1.6 1.6 0.00 0.00 0.00 79 1015.3
20260505040532 13 338 1.6 3.2 0.00 0.00 0.00 79 1015.3
20260505035532 13 312 1.6 3.2 0.00 0.00 0.00 78 1015.2
20260505034533 13 316 1.6 3.2 0.00 0.00 0.00 78 1015.1
20260505033533 13 325 1.6 4.8 0.00 0.00 0.00 78 1015.0
20260505032534 13 305 1.6 3.2 0.00 0.00 0.00 78 1014.7
20260505031518 13 294 1.6 3.2 0.00 0.00 0.00 77 1014.7
20260505030518 13 339 1.6 3.2 0.00 0.00 0.00 76 1014.7
20260505025519 13 322 1.6 1.6 0.00 0.00 0.00 75 1014.7
20260505024538 14 325 1.6 3.2 0.00 0.00 0.00 74 1014.7
20260505023519 14 326 1.6 1.6 0.00 0.00 0.00 73 1014.7
20260505022520 15 289 1.6 3.2 0.00 0.00 0.00 72 1014.6